Station TCBM2 - 8573364 - Tolchester Beach, MD Image indicating link to RSS feed of recent meteorological observations for station TCBM2


Conditions at TCBM2 as of
(12:30 pm EDT)
1630 GMT on 04/18/2024:
     

Click on the graph icon in the table below to see a time series plot of the last five days of that observation.

5-day plot - Wind Direction Wind Direction (WDIR): N ( 10 deg true )
5-day plot - Wind Speed Wind Speed (WSPD): 7.0 kts
5-day plot - Wind Gust Wind Gust (GST): 8.0 kts
5-day plot - Atmospheric Pressure Atmospheric Pressure (PRES):30.04 in
5-day plot - Air Temperature Air Temperature (ATMP): 58.1 °F
5-day plot - Wind Speed at 10 Meters Wind Speed at 10 meters (WSPD10M): 7.8 kts
5-day plot - Wind Speed at 20 Meters Wind Speed at 20 meters (WSPD20M): 7.8 kts
5-day plot -  Wind Speed, Wind Gust and Atmospheric Pressure Combined plot of Wind Speed, Gust, and Air Pressure
NOS Water Level Observation Network Water Level
Previous observations
TIME
(EDT)
5-day plot - Wind Direction
WDIR
 
5-day plot - Wind Speed
WSPD
kts
5-day plot - Wind Gust
GST
kts
5-day plot - Wave Height
WVHT
ft
5-day plot - Dominant Wave Period
DPD
sec
5-day plot - Average Wave Period
APD
sec
5-day plot - Mean Wave Direction
MWD
 
5-day plot - Atmospheric Pressure
PRES
in
5-day plot - Pressure Tendency
PTDY
in
5-day plot - Air Temperature
ATMP
°F
5-day plot - Water Temperature
WTMP
°F
5-day plot - Dew Point
DEWP
°F
5-day plot - Salinity
SAL
psu
5-day plot - Visibility
VIS
nmi
5-day plot - Tide (above MLLW)
TIDE
ft
2024-04-18 12:24 pm N 8.0 8.9----30.04- 58.1-----
2024-04-18 12:18 pm N 8.0 9.9----30.04- 57.9-----
2024-04-18 12:12 pm N 8.9 11.1----30.04- 57.9-----
2024-04-18 12:06 pm N 8.0 9.9----30.04- 57.7-----
2024-04-18 12:00 pm N 8.9 8.9----30.03+0.04 57.7-----
2024-04-18 11:54 am N 8.0 8.0----30.03- 57.6-----
2024-04-18 11:48 am N 7.0 9.9----30.03- 57.2-----
2024-04-18 11:42 am N 8.9 9.9----30.03- 56.7-----
2024-04-18 11:36 am N 8.9 9.9----30.03- 56.7-----
2024-04-18 11:30 am N 9.9 12.0----30.03- 56.3-----
2024-04-18 11:24 am N 12.0 12.0----30.03- 55.9-----
2024-04-18 11:18 amNNE 9.9 12.0----30.02- 56.1-----
2024-04-18 11:12 am N 11.1 12.0----30.02- 56.1-----
2024-04-18 11:06 amNNE 11.1 12.0----30.02- 55.9-----
2024-04-18 11:00 am N 9.9 11.1----30.02+0.03 55.8-----
2024-04-18 10:54 am N 9.9 11.1----30.02- 55.6-----
2024-04-18 10:48 am N 9.9 11.1------------
2024-04-18 10:42 am N 8.0 8.9------------
2024-04-18 10:36 am N 8.0 8.9------------
2024-04-18 10:30 am N 8.0 8.9----30.02- 56.1-----
2024-04-18 10:24 am N 4.1 6.0----30.02- 56.8-----
2024-04-18 10:18 am NE 4.1 6.0----30.01- 56.8-----
2024-04-18 10:12 am NE 2.9 6.0----30.01- 57.0-----
2024-04-18 10:06 am NE 2.9 6.0----30.01- 56.8-----
2024-04-18 10:00 amNNE 4.1 6.0----30.01+0.04 56.5-----
2024-04-18 09:54 am NE 2.9 7.0----30.01- 56.7-----
2024-04-18 09:48 amNNE 4.1 8.0----30.00- 56.3-----
2024-04-18 09:42 amENE 4.1 6.0----30.00- 56.5-----
2024-04-18 09:36 amENE 4.1 5.1----30.00- 56.3-----
2024-04-18 09:30 amENE 2.9 6.0----30.00- 56.3-----
2024-04-18 09:24 amNNE 4.1 6.0----30.00- 56.1-----
2024-04-18 09:18 amENE 1.9 5.1------------
2024-04-18 09:12 amENE 2.9 5.1----30.00- 55.9-----
2024-04-18 09:06 amENE 2.9 4.1----30.00- 55.9-----
2024-04-18 09:00 am NE 2.9 6.0----30.00+0.07 55.9-----
2024-04-18 08:54 amNNE 4.1 7.0----30.00- 55.8-----
2024-04-18 08:48 amNNE 4.1 6.0----30.00- 55.8-----
2024-04-18 08:42 amNNE 4.1 7.0----29.99- 55.6-----
2024-04-18 08:36 am NE 2.9 6.0----30.00- 55.6-----
2024-04-18 08:30 amNNE 5.1 7.0----30.00- 55.6-----
2024-04-18 08:24 am E 2.9 5.1----29.99- 55.8-----
2024-04-18 08:18 amNNE 4.1 6.0----29.99- 55.6-----
2024-04-18 08:12 am NE 2.9 6.0----29.99- 55.6-----
2024-04-18 08:06 amENE 4.1 5.1----29.99- 55.8-----
2024-04-18 08:00 amENE 1.9 6.0----29.99+0.09 55.9-----
2024-04-18 07:54 amENE 2.9 6.0----29.99- 55.8-----
2024-04-18 07:48 amENE 2.9 8.0----29.99- 55.6-----
2024-04-18 07:42 amENE 2.9 5.1----29.98- 55.8-----
2024-04-18 07:36 amENE 2.9 6.0----29.98- 55.8-----
2024-04-18 07:30 amENE 4.1 6.0----29.98- 55.8-----
2024-04-18 07:24 amENE 4.1 6.0----29.98- 55.8-----
2024-04-18 07:18 amENE 4.1 6.0----29.98- 55.8-----
2024-04-18 07:12 am NE 1.9 5.1----29.98- 55.8-----
2024-04-18 07:06 amNNE 1.9 4.1----29.97- 55.8-----
2024-04-18 07:00 am NE 2.9 5.1----29.97+0.08 55.8-----
2024-04-18 06:54 amNNE 1.9 2.9----29.96- 55.8-----
2024-04-18 06:48 am NE 1.0 5.1----29.96- 55.8-----
2024-04-18 06:42 am NE 1.9 5.1----29.95- 55.8-----
2024-04-18 06:36 am NE 2.9 5.1----29.95- 55.8-----
2024-04-18 06:30 amENE 2.9 5.1----29.94- 55.8-----
2024-04-18 06:24 am NE 1.9 4.1----29.94- 55.8-----
2024-04-18 06:18 amENE 2.9 4.1----29.93- 55.9-----
2024-04-18 06:12 amNNE 1.9 5.1----29.93- 55.8-----
2024-04-18 06:06 am NE 2.9 5.1----29.93- 55.8-----
2024-04-18 06:00 amNNE 1.9 4.1----29.93+0.04 55.8-----
2024-04-18 05:54 amNNE 2.9 5.1----29.92- 55.8-----
2024-04-18 05:48 amNNE 2.9 5.1----29.92- 55.8-----
2024-04-18 05:42 amNNE 2.9 5.1----29.92- 55.8-----
2024-04-18 05:36 amNNE 4.1 5.1----29.92- 55.9-----
2024-04-18 05:30 amNNE 2.9 4.1----29.92- 55.8-----
2024-04-18 05:24 amNNE 1.9 2.9----29.91- 55.8-----
2024-04-18 05:18 amNNE 1.0 2.9----29.91- 55.9-----
2024-04-18 05:12 amENE 1.9 2.9----29.91- 55.9-----
2024-04-18 05:06 amENE 2.9 4.1----29.90- 55.9-----
2024-04-18 05:00 amNNE 1.9 5.1----29.90+0.02 56.1-----
2024-04-18 04:54 amENE 2.9 5.1----29.90- 56.1-----
2024-04-18 04:48 amENE 2.9 5.1----29.90- 56.1-----
2024-04-18 04:42 amNNE 1.9 6.0----29.90- 56.3-----
2024-04-18 04:36 am NE 2.9 5.1----29.90- 56.5-----
2024-04-18 04:30 amENE 4.1 8.0----29.89- 56.5-----
2024-04-18 04:24 am NE 2.9 8.0----29.88- 56.5-----
2024-04-18 04:18 am NE 5.1 7.0----29.89- 56.5-----
2024-04-18 04:12 am NE 5.1 7.0----29.89- 56.5-----
2024-04-18 04:06 am NE 2.9 6.0----29.88- 56.7-----
2024-04-18 04:00 amNNE 4.1 8.0----29.89-0.01 56.7-----
2024-04-18 03:54 amENE 4.1 8.0----29.89- 56.7-----
2024-04-18 03:48 am NE 5.1 8.9----29.89- 56.7-----
2024-04-18 03:42 amNNE 5.1 8.9----29.90- 57.0-----
2024-04-18 03:36 amNNE 7.0 9.9----29.90- 57.0-----
2024-04-18 03:30 amNNE 4.1 6.0----29.90- 57.0-----
2024-04-18 03:24 amNNE 2.9 6.0----29.89- 57.0-----
2024-04-18 03:18 amNNE 4.1 7.0----29.89- 57.0-----
2024-04-18 03:12 am NE 5.1 8.0----29.89- 57.0-----
2024-04-18 03:06 am NE 1.9 7.0----29.89- 57.2-----
2024-04-18 03:00 amNNE 6.0 9.9----29.89+0.01 57.2-----
2024-04-18 02:54 amNNE 2.9 6.0----29.88- 57.4-----
2024-04-18 02:48 am NE 4.1 8.9----29.88- 57.4-----
2024-04-18 02:42 amNNE 5.1 8.9----29.89- 57.6-----
2024-04-18 02:36 amNNE 2.9 7.0----29.88- 57.6-----
2024-04-18 02:30 amNNE 5.1 8.0----29.88- 57.6-----
2024-04-18 02:24 amNNE 2.9 5.1----29.88- 57.6-----
2024-04-18 02:18 amNNE 4.1 6.0----29.88-------
2024-04-18 02:12 amENE 4.1 6.0----29.88- 57.6-----
2024-04-18 02:06 amNNE 4.1 8.0----29.88- 57.6-----
2024-04-18 02:00 am NE 5.1 8.9----29.88-0.02 57.7-----
2024-04-18 01:54 amNNE 5.1 11.1----29.89- 57.9-----
2024-04-18 01:48 amNNE 7.0 14.0----29.90- 57.9-----
2024-04-18 01:42 am N 12.0 14.0----29.91- 57.9-----
2024-04-18 01:36 am N 9.9 11.1----29.91- 57.7-----
2024-04-18 01:30 am N 7.0 12.0----29.91- 57.7-----
2024-04-18 01:24 am N 9.9 12.0----29.91- 57.7-----
2024-04-18 01:18 am N 11.1 13.0----29.91-------
2024-04-18 01:12 am N 12.0 13.0----29.91- 57.7-----
2024-04-18 01:06 am N 8.0 8.9----29.91- 57.7-----
2024-04-18 01:00 am N 5.1 6.0----29.91+0.00 57.6-----
2024-04-18 12:54 amNNE 1.9 4.1----29.89- 57.4-----
2024-04-18 12:48 am N 1.9 4.1----29.89-------
2024-04-18 12:42 am E 5.1 8.0----29.88- 57.4-----
2024-04-18 12:36 am E 4.1 7.0----29.88- 57.4-----
2024-04-18 12:30 amENE 2.9 5.1----29.89- 57.4-----
2024-04-18 12:24 amENE 4.1 7.0----29.89- 57.2-----
2024-04-18 12:18 am E 4.1 6.0----29.88- 57.2-----
2024-04-18 12:12 am E 5.1 7.0----29.88- 57.2-----
2024-04-18 12:06 am E 6.0 8.0----29.88- 57.2-----
2024-04-18 12:00 am E 7.0 8.9----29.88-0.06 57.0-----
2024-04-17 11:54 pm E 5.1 8.9----29.88- 57.0-----
2024-04-17 11:48 pm E 6.0 8.9----29.88- 57.0-----
2024-04-17 11:42 pm E 5.1 11.1----29.88- 57.0-----
2024-04-17 11:36 pm E 7.0 11.1----29.88- 57.0-----
2024-04-17 11:30 pm E 7.0 9.9----29.88- 57.0-----
2024-04-17 11:24 pm E 7.0 12.0----29.89- 57.0-----
2024-04-17 11:18 pm E 7.0 9.9----29.89- 57.0-----
2024-04-17 11:12 pm E 7.0 11.1----29.89- 56.8-----
2024-04-17 11:06 pm E 6.0 9.9----29.90- 57.0-----
2024-04-17 11:00 pm E 7.0 9.9----29.90-0.01 56.8-----
2024-04-17 10:54 pm E 7.0 9.9----29.91- 56.8-----
2024-04-17 10:48 pmENE 5.1 8.9----29.90- 56.7-----
2024-04-17 10:42 pm E 4.1 7.0----29.91- 56.8-----
2024-04-17 10:36 pmENE 4.1 7.0----29.90- 56.8-----
2024-04-17 10:30 pmENE 4.1 6.0----29.90- 57.0-----
2024-04-17 10:24 pmENE 4.1 8.0----29.91- 57.2-----
2024-04-17 10:18 pm E 6.0 8.9----29.90- 57.4-----
2024-04-17 10:12 pmENE 2.9 6.0----29.91- 57.4-----
2024-04-17 10:06 pmENE 4.1 8.0----29.91- 57.6-----
2024-04-17 10:00 pm E 5.1 7.0----29.90+0.00 57.6-----
2024-04-17 09:54 pm E 6.0 8.9----29.90- 57.7-----
2024-04-17 09:48 pm E 6.0 9.9----29.91- 57.9-----
2024-04-17 09:42 pm E 6.0 11.1----29.91- 58.1-----
2024-04-17 09:36 pm E 7.0 11.1----29.91- 58.5-----
2024-04-17 09:30 pm E 7.0 11.1----29.91- 58.6-----
2024-04-17 09:24 pm E 6.0 8.9----29.92- 58.8-----
2024-04-17 09:18 pm E 7.0 11.1----29.92- 59.0-----
2024-04-17 09:12 pm E 7.0 9.9----29.93- 59.2-----
2024-04-17 09:06 pm E 7.0 9.9----29.93- 59.5-----
2024-04-17 09:00 pm E 6.0 8.9----29.94+0.01 59.9-----
2024-04-17 08:54 pm E 5.1 8.0----29.94- 60.1-----
2024-04-17 08:48 pmENE 4.1 6.0----29.94- 60.3-----
2024-04-17 08:42 pmENE 1.9 6.0----29.94- 60.6-----
2024-04-17 08:36 pmENE 2.9 5.1----29.95- 60.6-----
2024-04-17 08:30 pm NE 2.9 6.0----29.94- 60.8-----
2024-04-17 08:24 pm NE 2.9 5.1----29.93- 61.3-----
2024-04-17 08:18 pm NE 1.0 6.0----29.93- 61.9-----
2024-04-17 08:12 pm E 2.9 5.1----29.93- 62.2-----
2024-04-17 08:06 pm E 4.1 7.0----29.92- 62.4-----
2024-04-17 08:00 pm E 5.1 7.0----29.91-0.05 62.6-----
2024-04-17 07:54 pm E 2.9 7.0----29.91- 63.0-----
2024-04-17 07:48 pm E 4.1 8.9----29.91- 63.5-----
2024-04-17 07:42 pm E 6.0 11.1----29.90- 63.9-----
2024-04-17 07:36 pm E 5.1 7.0----29.89- 64.6-----
2024-04-17 07:30 pm E 4.1 7.0----29.88- 65.5-----
2024-04-17 07:24 pm E 5.1 8.0----29.88- 66.0-----
2024-04-17 07:00 pm E 4.1 5.1----29.89-0.07 66.7-----
2024-04-17 06:54 pm E 4.1 6.0----29.90- 66.7-----
2024-04-17 06:48 pm E 5.1 8.0----29.90- 66.9-----
2024-04-17 06:42 pm E 4.1 7.0----29.90- 67.1-----
2024-04-17 06:36 pm E 5.1 6.0----29.91- 67.1-----
2024-04-17 06:30 pm E 2.9 5.1----29.91- 67.1-----
2024-04-17 06:24 pm E 1.9 2.9----29.91- 66.9-----
2024-04-17 06:18 pm NE 1.9 2.9----29.92- 66.0-----
2024-04-17 06:12 pm NE 1.9 2.9----29.92- 66.0-----
2024-04-17 06:06 pm N 1.9 4.1----29.93- 65.8-----
2024-04-17 06:00 pm N 1.0 2.9----29.93-0.04------
2024-04-17 05:54 pm NE 1.9 4.1----29.93-------
2024-04-17 05:48 pm E 1.9 2.9----29.93- 66.2-----
2024-04-17 05:42 pm E 1.9 4.1----29.93- 66.0-----
2024-04-17 05:36 pmENE 1.9 2.9----29.93- 65.8-----
2024-04-17 05:30 pm E 1.9 2.9----29.94- 65.5-----
2024-04-17 05:24 pm NE 1.0 2.9----29.94- 65.3-----
2024-04-17 05:18 pm- 0.0 1.9----29.94- 65.1-----
2024-04-17 05:12 pmESE 1.9 2.9----29.95- 64.8-----
2024-04-17 05:06 pmENE 1.9 2.9----29.95- 64.4-----
2024-04-17 05:00 pmENE 1.0 4.1----29.96-0.08 63.7-----
2024-04-17 04:54 pmNNE 2.9 4.1----29.97- 62.1-----
2024-04-17 04:48 pm N 4.1 4.1----29.97- 62.2-----
2024-04-17 04:42 pmWNW 1.9 4.1----29.97- 62.8-----
2024-04-17 04:36 pmNNE 2.9 8.0----29.97- 61.5-----
2024-04-17 04:30 pm NW 7.0 8.0----29.97- 61.7-----
2024-04-17 04:24 pm NW 6.0 9.9----29.96- 61.7-----
2024-04-17 04:18 pmWNW 8.0 12.0----29.97- 62.6-----
2024-04-17 04:12 pm SE 1.9 8.0----29.96- 70.2-----
2024-04-17 04:06 pmWSW 6.0 8.9----29.97- 68.9-----
2024-04-17 04:00 pmWSW 4.1 5.1----29.96-0.09 69.4-----
2024-04-17 03:54 pmSSE 4.1 13.0----29.95- 69.6-----
2024-04-17 03:48 pm SE 8.0 15.0----29.93- 69.3-----
2024-04-17 03:42 pm SE 8.9 15.9----29.93- 69.4-----
2024-04-17 03:36 pm SE 7.0 13.0----29.93- 69.4-----
2024-04-17 03:30 pmSSE 9.9 15.0----29.94- 68.7-----
2024-04-17 03:24 pmSSE 7.0 15.0----29.94- 68.4-----
2024-04-17 03:18 pm SE 7.0 11.1----29.94- 67.6-----
2024-04-17 03:12 pm E 6.0 9.9----29.94- 65.8-----
2024-04-17 03:06 pmENE 6.0 13.0----29.94- 64.4-----
2024-04-17 03:00 pmENE 8.0 19.0----29.96-0.11 63.3-----
2024-04-17 02:54 pmNNE 11.1 13.0----29.99- 62.4-----
2024-04-17 02:48 pm NE 4.1 5.1----29.99- 64.0-----
2024-04-17 02:42 pmENE 4.1 6.0----30.00- 63.9-----
2024-04-17 02:36 pm NE 4.1 7.0----30.02- 61.7-----
2024-04-17 02:30 pm N 5.1 7.0----30.04- 60.8-----
2024-04-17 02:24 pm N 6.0 7.0----30.05- 60.8-----
2024-04-17 02:18 pm N 5.1 6.0----30.05- 61.0-----
2024-04-17 02:12 pm NW 4.1 5.1----30.04- 61.2-----
2024-04-17 02:06 pm NW 5.1 6.0----30.04- 61.2-----
2024-04-17 02:00 pm NW 4.1 5.1----30.04-0.08 61.7-----
2024-04-17 01:54 pmWNW 4.1 4.1----30.04- 61.9-----
2024-04-17 01:48 pm- 0.0 2.9----30.03- 62.2-----
2024-04-17 01:42 pmNNW 1.9 5.1----30.04- 61.3-----
2024-04-17 01:36 pmWNW 5.1 7.0----30.05- 61.0-----
2024-04-17 01:30 pmWNW 4.1 6.0----30.05- 62.4-----
2024-04-17 01:24 pmWNW 2.9 4.1----30.05- 63.0-----
2024-04-17 01:18 pm W 4.1 5.1----30.05- 64.2-----
2024-04-17 01:12 pmSSW 5.1 8.0----30.05- 64.9-----
2024-04-17 01:06 pm S 5.1 8.0----30.05- 64.4-----
2024-04-17 01:00 pm S 4.1 5.1----30.05-0.06 63.7-----
2024-04-17 12:54 pm S 2.9 7.0----30.05- 62.8-----